TITAN 3C TRANSTAGE R/B, 9855

Orbit data source: Space-Track

TITAN 3C TRANSTAGE R/B, 9855 is space debris in GEO originally from a launch on Sun, 06 Feb 1977 UTC launched from the Air Force Eastern Test Range (AFETR). Debris objects in space refer to the collection of defunct objects orbiting the Earth. Examples of debris include non-operational satellites, rocket bodies, and fragments generated from explosions, collisions, or faulty payload assembly.

Loading next visibility...
Identifier
9855, 1977-007C
Orbit
GEO
Country
Flag of USUS
Related business
Manufacturer
Martin Marietta
Mission
Spacecraft
Bus & Motor
TRANSTAGE, Unknown motor
Mass
~1,950 kg wet, ~1,950 kg dry
Launch date (UTC)
1977-02-06 (49 years ago)
Launch vehicle
Unknown
Launch site
Air Force Eastern Test Range (AFETR)
Object type
Payload
Rocket body
Debris
Shape & HBR
Unknown
Radar Cross Section
RCS unknown

Expand to show TLE details & history
Last TLE update: 23 hours ago

TLE from 23 hours ago
0 TITAN 3C TRANSTAGE R/B
1 09855U 77007C   25308.02652417  .00000123  00000-0  00000-0 0  9999
2 09855   3.9768 271.7054 0016489  35.3352 324.6318  1.00253642 23103
Epoch: 2025-11-04T00:38Z
TLE epoch observation values (Epoch: 2025-11-04T00:38:11.688Z)
Latitude
0.00001°
Longitude
-141.55096°
Altitude
35,734.864 km
Speed
3.079 km/s
True Right ascension
18h 06m 04s
True Declination
0° 00' 00"
Sunlit
Object was in daylight at epoch
Visualization orbit readout
Latitude
Unknown
Longitude
Unknown
Altitude
Unknown
Speed
Unknown
Apparent Right ascension
Unknown
Apparent Declination
Unknown
Sunlit
N/A
Visualization observer readout
Local Sidereal Time
19:34:04
Azimuth
Unknown
Elevation
Unknown
Doppler factor
Unknown
Orbital elements
Apogee altitude
35,862.28 km
Perigee altitude
35,723.209 km
Semi-major axis
42,170.882 km
Eccentricity
0.00165
Inclination
3.9768°
RAAN
271.7054°
Arg. of periapsis
35.3352°
True anomaly
324.52225°
Mean anomaly
324.6318°
Eccentric anomaly
324.57704°
Mean motion
0.25062 °/min
Orbital period
1,436.41 mins
BSTAR
0
Loading maneuver chart data...
Computing Atmospheric mass density...
Loading historical data...
Loading historical data...
Loading historical data...
Loading historical data...
Loading historical data...
Loading historical data...
Loading historical data...
Other satellites on launch #7 in the year 1977 (1977-02-06 UTC)

Documentation

Showing up to 5 results
|